Regional Weather Roundup
Issued by NWS Cleveland, OH

Home | Current Version | Previous Version | Graphics & Text | Print | Product List | Glossary On
Versions: 1 2 3 4 5 6 7 8 9 10 11 12 13 14 15 16 17 18 19 20 21 22 23 24 25 26 27 28 29 30 31 32 33 34 35 36 37 38 39 40 41 42 43 44 45 46 47 48 49 50
000
ASUS41 KCLE 300510
RWRCLE
OHIO REGIONAL WEATHER ROUNDUP
NATIONAL WEATHER SERVICE WILMINGTON, OH
100 AM EDT TUE SEP 30 2014

NOTE: "FAIR" INDICATES FEW OR NO CLOUDS BELOW 12,000 FEET WITH NO
SIGNIFICANT WEATHER AND/OR OBSTRUCTIONS TO VISIBILITY.

OHZ001>008-015>018-024>027-034-035-043-044-300600-
   NORTHWEST OHIO

CITY           SKY/WX    TMP DP  RH WIND       PRES   REMARKS
DEFIANCE       CLEAR     58  54  86 CALM      29.90F
FINDLAY        CLEAR     57  51  80 S6        29.89F
TOLEDO EXPRESS PTCLDY    55  54  96 CALM      29.88F
TOLEDO METCALF CLEAR     59  55  87 CALM      29.89F
LIMA           CLEAR     58  52  80 S3        29.92S
$$

OHZ009>014-019>023-028>033-038-089-300600-
   NORTHEAST OHIO

CITY           SKY/WX    TMP DP  RH WIND       PRES   REMARKS
CLE-HOPKINS    CLEAR     57  53  86 CALM      29.91F
CLE-LAKEFRONT  CLEAR     63  55  75 SE9       29.88F
CUY CO. ARPT   NOT AVBL
LORAIN-ELYRIA  CLEAR     59  54  83 CALM      29.90F
ASHTABULA      CLEAR     55  53  93 CALM      29.91S
AKRON-CANTON   CLEAR     58  53  84 CALM      29.92F
WOOSTER        CLEAR     50  47  89 CALM      29.92F FOG
MANSFIELD      CLEAR     54  53  97 S5        29.92F
YOUNGSTOWN     CLEAR     53  53 100 S3        29.91F
$$

OHZ042-051>053-060>062-070>072-077>081-300600-
  SOUTHWEST OHIO

CITY           SKY/WX    TMP DP  RH WIND       PRES   REMARKS
CINC-COVINGTON CLEAR     57  52  83 CALM      29.94S
CINC-LUNKEN    CLEAR     53  53 100 CALM      29.95R
HAMILTON       CLEAR     52  51  97 CALM      29.95S
DAYTON         CLEAR     60  49  66 W3        29.94F
WRIGHT-PAT AFB CLEAR     56  51  82 CALM      29.93F
DAYTON GENERAL CLEAR     61  49  64 CALM      29.93S
WILMINGTON     CLEAR     54  50  86 CALM      29.94S
$$

OHZ036-037-039>041-045>050-054>059-063>069-073>076-082>088-300600-
  CENTRAL AND SOUTHEAST OHIO

CITY           SKY/WX    TMP DP  RH WIND       PRES   REMARKS
COLUMBUS       CLEAR     58  52  80 CALM      29.91F
OSU AIRPORT    CLEAR     59  52  77 CALM      29.92S
BOLTON FIELD   CLEAR     52  49  89 CALM      29.92F FOG
RICKENBACK AFB CLEAR     55  50  83 CALM      29.92S
NEWARK         CLEAR     50  48  93 CALM      29.91F
MARION         CLEAR     55  49  80 CALM      29.92F
LANCASTER      CLEAR     50  47  89 CALM      29.92F
ZANESVILLE     CLEAR     55  51  86 CALM      29.91F
NEW PHILLY     CLEAR     55  53  93 CALM      29.92F FOG
$$


USA.gov is the U.S. government's official web portal to all federal, state and local government web resources and services.